Theta_e
317 319 323 327 328 325 325 323 322 322 321 321 322 323 323 323 324 326 318 318 317 316 315 315 314 315 315 317 323 327 329 329 329 331 331 331 330 329 329 328 326 326 326 326 326 327 327 326 329
318 321 325 328 328 327 325 323 321 321 321 319 319 320 320 323 319 317 318 318 316 315 315 315 314 314 314 314 317 320 326 330 330 330 330 329 327 325 325 323 323 323 324 326 327 327 326 325 325
318 322 328 328 326 323 324 322 322 320 318 319 319 318 320 321 317 318 317 317 315 314 314 313 313 313 313 314 315 315 318 321 323 324 325 324 322 322 324 324 325 325 325 324 323 323 325 325 324
321 322 321 323 324 323 322 322 321 319 318 317 319 320 316 316 316 316 317 316 314 313 312 311 310 310 310 310 311 311 312 313 313 313 313 313 313 313 314 315 316 317 319 323 326 326 324 322 322
319 323 325 323 323 322 321 320 320 320 319 319 317 320 318 314 314 316 317 315 312 312 311 309 308 308 308 308 308 307 307 307 307 307 306 306 305 305 305 305 306 307 309 311 314 316 320 324 326
322 321 324 325 324 322 321 319 319 320 320 318 317 318 318 314 314 316 317 316 312 310 309 308 308 308 308 307 306 305 304 303 303 302 302 302 302 302 302 302 302 302 302 302 303 306 310 314 317
323 325 325 324 323 322 321 319 319 320 320 319 317 319 316 313 312 313 314 313 311 309 308 308 308 308 307 306 306 304 303 302 302 302 302 302 302 302 302 302 302 302 301 301 301 301 302 303 306
319 322 324 323 323 323 320 318 317 319 320 317 316 319 320 313 312 312 311 311 309 308 307 307 307 307 307 307 305 303 303 303 303 303 302 302 302 302 302 302 302 301 301 300 300 300 301 301 301
320 322 325 324 322 323 318 318 316 315 317 315 315 315 315 313 312 311 311 309 308 308 308 307 307 306 306 305 303 303 302 303 302 302 302 302 302 302 302 302 301 300 300 300 300 300 300 300 300
321 324 324 322 321 320 319 318 319 315 316 316 315 314 313 311 311 311 311 310 309 309 308 307 306 305 304 303 303 302 302 302 301 301 302 302 301 302 302 301 300 300 300 300 299 299 300 300 300
321 323 321 321 318 317 318 318 317 317 318 319 318 317 313 310 309 309 309 308 308 308 308 307 306 305 304 302 302 301 302 301 301 301 301 301 301 301 301 301 300 300 299 299 299 299 299 299 299
321 321 319 319 317 316 317 317 317 316 318 317 317 317 315 312 309 310 308 307 306 304 306 306 305 304 303 302 301 301 301 300 300 300 300 300 300 300 300 300 300 300 299 298 298 298 298 298 298
320 320 318 317 316 316 317 316 317 318 318 317 315 314 313 312 310 309 308 308 306 303 304 305 304 302 301 301 300 300 300 299 299 299 299 300 300 299 299 299 299 298 298 297 296 297 297 297 297
319 318 318 318 317 317 316 317 315 318 317 317 316 313 312 312 311 310 308 307 305 303 304 305 304 302 301 300 299 299 299 298 298 298 299 299 298 298 299 299 298 297 297 296 295 295 295 295 295
316 318 319 319 317 317 315 317 318 317 315 315 315 314 313 312 311 311 310 307 305 303 302 303 302 301 300 299 298 298 298 298 298 299 298 298 298 299 299 298 297 296 295 295 294 294 294 294 294
317 318 319 320 317 316 315 318 318 318 316 314 315 315 313 312 311 312 310 308 305 302 302 302 302 301 300 299 298 298 298 298 298 298 298 298 299 299 298 297 296 295 294 294 293 293 293 293 293
320 321 321 321 317 317 316 318 318 317 315 315 315 315 315 313 311 309 309 307 304 302 301 302 301 301 299 298 297 297 297 297 297 297 296 297 298 298 297 296 296 296 295 294 294 294 293 293 294
319 319 320 320 319 316 317 317 317 316 316 316 315 315 315 315 313 309 308 306 304 301 300 301 302 300 299 298 297 297 296 296 296 296 296 297 297 296 295 295 295 294 294 293 293 292 292 292 292
319 318 318 318 319 317 317 317 317 317 316 316 316 315 315 315 315 309 307 305 303 300 299 300 300 299 298 297 296 296 296 296 296 296 296 297 296 296 296 296 294 293 292 292 291 290 290 290 290
318 318 318 319 319 314 316 317 317 317 317 316 315 315 315 315 314 309 306 304 302 300 300 299 299 299 298 297 296 296 295 295 295 296 296 296 296 295 295 294 292 292 291 290 289 289 289 289 289
317 317 318 319 319 314 314 316 317 316 314 314 313 313 313 314 314 309 305 302 301 300 300 300 299 299 298 296 296 295 295 294 294 295 295 296 295 295 294 293 292 291 289 289 289 288 288 288 288
317 317 318 318 318 319 314 318 318 317 316 315 313 313 314 312 312 309 305 302 302 302 301 300 299 298 298 297 296 295 295 294 294 294 295 295 294 294 293 292 291 290 289 289 288 288 288 288 288
317 312 315 316 317 318 317 318 317 312 314 313 314 314 315 314 310 308 305 306 304 304 303 301 300 298 297 297 296 295 294 294 293 294 294 294 293 293 292 291 290 289 289 288 288 288 288 288 287
310 312 312 312 314 318 317 318 317 317 314 314 315 314 314 312 309 307 305 304 305 304 303 302 301 299 298 297 296 295 294 293 293 293 294 293 293 292 291 290 290 289 289 288 288 288 287 287 286
311 315 318 322 321 321 318 316 317 317 314 314 314 314 314 311 309 307 305 307 307 306 306 301 302 302 298 297 296 295 294 292 292 292 292 292 292 291 290 289 289 289 288 288 287 287 287 286 286
313 316 320 324 320 320 313 316 316 316 315 313 313 312 311 310 309 308 308 309 309 307 305 302 303 304 299 297 295 294 293 292 291 291 291 292 291 290 289 289 289 288 288 288 287 287 286 285 284
314 313 315 320 319 319 316 317 318 315 313 313 311 310 310 308 308 309 309 310 309 308 308 307 303 301 301 298 295 294 292 291 290 291 291 290 290 289 289 288 288 288 288 287 286 285 284 284 283
310 311 315 315 322 319 317 318 318 315 314 313 312 311 311 310 308 307 308 309 309 309 307 305 303 302 300 298 296 294 292 291 290 290 290 290 289 288 288 288 288 288 287 285 284 284 284 283 283
309 311 310 311 317 318 318 317 314 315 314 314 314 312 312 312 309 308 308 308 309 309 307 306 304 301 299 297 295 293 291 290 289 290 290 289 288 288 288 288 287 286 285 284 284 283 283 283 282
311 313 313 314 315 314 315 316 314 313 313 312 312 311 311 312 311 310 309 309 309 309 307 305 303 300 300 296 293 292 290 289 289 289 289 289 288 288 287 287 286 285 285 284 283 283 283 282 282
Wind_Speed
5 4 3 2 6 5 4 4 1 6 5 4 6 6 5 4 3 1 7 15 13 9 5 4 3 4 5 4 5 7 8 9 8 8 8 9 8 9 10 10 10 11 12 13 13 13 13 14 14
5 4 2 4 6 7 3 6 7 7 6 8 6 3 4 4 2 3 9 18 14 11 8 5 4 5 5 6 7 8 8 9 9 10 10 12 12 12 12 13 13 12 13 13 14 15 16 16 17
6 5 6 4 5 7 5 4 5 9 8 9 6 5 3 0 4 8 13 17 13 11 8 4 2 2 2 3 5 6 7 10 11 12 14 15 15 14 15 16 15 14 15 16 17 18 18 18 18
0 3 6 6 10 4 4 3 5 10 6 5 3 5 2 7 7 9 16 17 13 10 7 4 3 2 0 2 3 5 6 8 9 10 12 11 12 12 13 14 16 17 18 19 20 20 20 20 20
2 5 6 7 8 3 1 1 7 9 7 7 7 2 2 6 11 11 18 16 13 12 10 9 6 4 4 5 4 5 6 7 8 10 11 12 13 13 13 14 15 15 16 18 21 23 23 22 22
7 5 6 8 3 0 2 5 8 10 8 6 7 10 4 9 13 14 18 17 16 14 13 10 7 6 6 6 5 5 6 7 8 8 8 9 9 10 11 12 13 14 16 17 19 20 22 24 24
9 6 10 8 9 5 5 7 12 10 12 11 3 6 3 10 13 17 19 20 18 17 15 12 10 9 8 6 6 6 6 5 5 5 5 6 7 8 10 12 13 14 14 14 14 16 19 22 24
4 4 7 4 5 6 4 8 3 12 11 9 8 6 9 13 17 18 21 21 21 20 18 17 15 11 9 8 7 7 7 6 7 7 6 6 7 9 10 13 13 15 16 17 18 18 17 17 19
2 5 7 5 5 2 3 8 5 5 10 7 10 10 9 10 16 20 22 23 24 24 22 19 16 13 12 12 10 10 10 9 7 6 5 6 7 9 11 12 13 14 15 16 17 18 19 19 20
5 6 6 1 4 5 5 10 9 5 13 18 16 15 18 15 18 22 24 26 27 27 25 22 19 17 16 15 13 12 11 9 7 6 5 5 6 8 10 12 14 14 15 16 16 17 17 18 18
4 6 4 6 7 7 9 10 11 11 14 18 19 18 22 20 22 23 25 26 26 25 27 26 23 21 20 18 16 15 13 10 9 8 7 7 7 8 10 12 14 15 15 16 16 17 18 19 19
5 12 9 2 4 5 10 7 9 21 24 6 7 11 20 22 25 27 27 26 25 25 28 28 26 24 23 20 18 16 14 13 11 9 8 8 9 9 11 13 14 16 17 18 17 18 18 19 20
9 10 8 10 8 11 11 16 13 21 21 20 16 18 18 22 24 25 26 25 26 27 29 29 29 27 24 22 20 18 16 14 11 10 9 10 10 10 11 12 15 17 19 20 20 20 20 20 20
4 10 14 11 15 12 9 16 5 13 12 21 22 21 20 24 25 24 27 29 30 31 31 31 31 28 25 23 21 19 17 14 12 12 11 10 10 10 11 13 16 19 21 22 22 23 25 25 25
6 9 13 17 14 7 7 10 18 24 14 14 18 21 22 25 24 29 29 31 32 33 31 32 30 28 26 24 22 20 17 15 15 14 12 11 10 11 12 14 17 20 23 25 26 26 27 28 29
6 6 11 2 11 6 8 18 12 10 13 17 20 23 23 26 29 28 29 31 32 32 33 33 32 31 29 26 24 22 20 18 18 15 13 12 11 11 12 14 17 20 23 24 25 26 28 30 31
10 11 15 16 16 4 13 15 8 6 11 23 24 27 28 28 28 28 30 31 32 32 32 34 34 32 29 27 25 23 22 21 20 16 13 12 12 12 13 16 19 22 24 25 26 27 29 32 34
17 17 15 15 9 13 15 21 21 28 27 30 33 33 32 32 30 26 28 30 30 31 32 33 34 33 31 30 28 26 25 24 21 16 14 15 14 14 15 18 20 22 24 25 26 28 28 30 33
22 21 23 24 8 9 19 23 22 28 30 30 34 35 31 29 24 23 29 31 32 32 34 33 35 34 33 32 29 28 27 25 21 18 18 17 17 16 16 19 21 24 25 25 25 26 28 28 30
20 20 25 21 7 5 16 22 21 22 29 35 33 33 24 19 19 21 28 33 35 34 36 35 34 35 35 32 30 29 26 26 24 23 21 20 19 18 18 19 22 24 25 23 23 24 27 28 26
18 21 22 21 13 13 14 19 17 14 19 26 35 29 21 19 20 23 28 31 33 36 37 37 37 37 36 34 33 31 29 26 26 25 24 22 19 19 20 21 22 24 24 23 23 25 26 27 26
19 12 18 19 11 14 1 17 15 15 18 13 28 31 22 18 19 22 28 32 34 34 35 36 37 38 37 37 36 33 31 29 28 27 26 23 21 21 22 22 22 23 22 23 25 26 28 30 30
8 2 5 8 12 17 16 15 14 6 9 13 18 30 19 15 21 26 31 28 28 29 33 35 36 38 39 40 38 36 35 33 30 29 26 24 22 23 23 21 22 23 24 24 27 29 30 31 30
7 2 3 4 5 12 20 18 8 7 6 8 13 19 12 10 17 20 23 23 26 28 32 35 36 39 41 41 40 39 37 35 34 32 29 25 24 24 23 22 23 23 25 27 30 32 33 33 33
9 6 6 9 6 16 13 12 19 11 13 15 21 22 9 11 18 21 24 25 27 31 32 34 33 36 41 43 43 42 39 37 35 32 29 28 26 23 22 23 24 25 28 31 32 34 35 35 36
14 10 6 11 15 24 5 13 12 13 14 20 19 13 10 14 19 24 24 24 26 29 31 32 32 34 40 43 44 42 40 38 36 33 30 28 25 21 23 23 23 26 30 33 35 36 37 35 35
9 8 3 8 1 8 16 26 19 6 10 11 8 11 18 17 22 24 23 26 27 29 29 30 34 36 38 43 44 44 42 39 37 33 30 27 23 23 24 23 24 28 31 33 33 34 34 33 34
6 2 5 5 6 16 27 24 17 10 14 9 8 13 20 14 21 24 27 30 30 28 29 32 35 37 37 42 45 45 42 38 36 33 29 24 23 23 23 24 26 28 30 30 31 31 31 33 34
7 7 7 4 10 11 17 12 6 2 5 3 7 12 13 13 20 24 28 29 30 28 34 34 35 37 39 43 46 46 43 40 36 32 28 25 23 23 24 25 26 27 28 29 30 30 32 33 35
12 19 21 10 16 9 14 27 6 4 5 3 8 13 16 15 18 20 27 32 33 34 37 38 37 39 41 44 47 47 44 39 35 31 28 24 22 23 25 25 26 26 27 28 29 31 32 34 36
Wind_Direction
158 161 153 235 244 232 225 194 67 164 168 143 187 174 238 311 235 352 178 168 175 184 183 188 189 239 265 262 240 240 233 237 246 262 276 280 283 284 289 287 291 291 292 289 288 287 284 286 290
162 162 214 265 255 252 116 139 189 175 100 158 166 217 247 234 110 154 150 172 181 184 192 189 184 226 246 256 256 252 252 256 257 262 271 280 280 285 288 291 289 290 290 290 289 286 286 288 289
158 173 251 242 267 281 352 166 167 127 143 168 180 227 276 253 166 167 196 181 188 189 200 198 231 252 274 282 285 286 278 273 276 280 278 276 284 286 286 287 290 292 293 293 291 289 290 290 287
137 228 245 249 263 298 306 166 144 150 166 192 213 208 206 199 167 187 181 186 193 197 210 220 213 225 287 297 300 297 297 294 293 291 290 294 296 294 293 293 293 291 289 286 286 287 288 288 287
220 250 255 247 276 291 243 274 175 181 168 183 196 230 220 230 205 203 186 193 197 199 206 206 209 211 252 261 274 283 280 282 285 288 295 299 298 301 299 294 292 290 288 287 285 285 282 281 281
247 273 252 264 324 234 238 200 196 207 191 154 211 248 244 229 212 202 198 204 206 206 204 208 221 247 260 279 288 289 295 299 301 300 298 303 308 307 305 306 305 304 301 295 288 287 288 286 283
262 266 279 295 284 261 228 191 206 217 221 212 232 234 191 222 206 204 199 205 210 210 213 218 227 236 247 261 276 284 290 300 308 315 323 326 327 330 332 334 334 333 329 327 320 309 298 290 286
263 268 278 254 292 282 161 191 243 229 243 195 191 234 235 217 204 205 208 210 213 215 216 221 224 228 237 247 252 264 273 283 299 310 320 324 327 337 335 335 335 334 335 337 334 332 324 318 307
239 254 266 280 263 1 161 214 207 236 232 212 223 243 228 206 209 205 210 213 215 217 222 226 228 229 231 237 239 242 247 252 260 270 286 312 329 333 336 335 335 336 335 334 333 332 331 329 323
241 262 295 329 276 268 216 233 236 223 222 233 238 234 240 216 216 213 215 218 219 221 223 225 223 224 228 233 236 237 238 242 244 249 266 289 304 319 325 331 331 329 330 329 330 330 328 330 328
200 252 351 267 252 260 258 243 223 230 249 240 240 235 238 216 222 221 222 221 225 223 224 225 225 225 227 230 232 232 234 237 239 243 255 271 290 307 320 323 326 329 329 327 324 324 325 326 326
258 246 249 266 236 245 244 264 236 231 240 248 247 247 220 226 224 229 225 220 217 216 223 222 223 223 225 228 228 230 231 232 237 244 258 276 288 304 316 323 327 327 327 324 322 321 320 319 317
246 275 247 245 233 241 255 248 254 260 255 253 249 246 218 231 230 231 226 222 217 216 220 220 221 222 223 225 227 229 231 232 239 248 259 270 283 299 312 322 324 325 323 323 321 320 318 316 314
338 273 265 260 251 246 233 258 248 261 250 243 239 239 232 229 232 225 222 219 215 220 221 221 221 222 224 226 226 228 229 232 239 252 264 272 282 297 313 319 323 324 324 323 323 326 326 325 323
277 282 272 249 245 243 208 251 234 255 243 231 235 238 233 232 226 230 230 221 219 223 219 221 220 220 223 225 227 229 231 234 243 254 261 268 281 299 313 322 324 321 323 324 325 327 325 324 323
260 257 271 217 182 196 192 266 247 250 212 236 246 246 240 233 232 234 228 226 219 217 218 220 221 222 222 225 228 231 234 237 244 248 255 266 282 300 308 312 313 316 319 322 323 324 326 325 324
209 267 268 263 192 163 210 267 286 211 239 265 263 259 249 244 237 232 226 222 215 216 215 219 220 222 223 226 228 231 235 238 243 247 255 266 274 285 296 307 314 319 321 319 319 321 323 323 322
290 287 270 261 197 217 234 249 271 275 272 272 270 266 260 253 241 232 224 217 213 211 214 220 222 222 224 226 227 231 233 235 239 244 252 262 272 284 296 307 310 314 316 318 320 322 321 321 321
274 283 276 272 272 219 246 260 269 275 278 274 275 274 266 256 246 227 221 211 211 210 213 216 219 220 222 224 226 230 234 236 238 240 247 256 264 275 292 302 310 309 313 316 320 320 320 321 320
264 265 267 273 287 213 271 270 268 268 268 274 275 271 272 262 223 219 213 207 211 214 219 218 219 221 225 226 228 231 233 235 236 239 245 251 262 278 290 296 298 305 308 315 316 316 317 318 322
247 250 260 272 296 231 273 275 259 249 258 262 270 268 267 249 225 210 205 208 210 216 219 220 222 224 227 227 229 231 232 235 236 238 244 252 264 273 283 290 298 302 305 311 311 313 313 311 312
261 261 253 268 280 274 82 287 280 286 264 246 268 273 267 232 218 209 202 207 216 218 222 224 225 227 229 229 231 234 237 238 238 238 242 251 261 271 279 287 296 298 301 307 309 308 308 307 305
239 348 248 256 257 279 261 270 277 171 263 232 248 266 274 235 221 201 207 214 215 217 224 227 227 229 231 231 232 234 234 235 236 239 244 252 262 271 278 288 291 296 301 306 304 302 303 301 296
124 219 221 229 267 257 260 243 283 217 214 235 251 246 260 226 201 200 204 206 211 219 223 224 227 232 233 233 233 234 234 235 236 239 244 250 259 269 279 286 291 296 300 302 301 299 299 298 294
204 213 271 256 225 264 280 260 255 271 246 254 263 268 239 203 189 190 199 207 212 218 221 219 225 234 233 232 233 232 233 234 237 239 243 248 257 266 277 285 292 298 299 299 299 299 298 296 291
198 214 222 267 266 282 112 263 265 234 232 246 251 243 216 202 199 201 208 217 218 220 221 219 225 232 235 234 233 232 232 233 234 237 242 249 257 266 275 282 290 295 297 299 300 298 297 295 290
167 201 255 273 237 280 267 267 262 163 202 230 227 230 233 215 212 213 219 224 220 221 221 225 227 231 236 237 234 232 232 231 232 235 241 248 257 266 274 284 291 294 297 298 299 298 298 295 292
237 93 189 201 259 259 278 278 277 243 229 212 233 239 253 227 225 228 232 228 223 227 225 228 231 236 237 238 236 233 231 230 230 233 241 248 258 268 278 285 291 294 296 298 298 299 299 295 293
188 223 220 293 239 251 270 268 54 6 151 270 224 244 244 228 227 236 239 234 230 235 231 231 232 233 234 237 235 232 228 226 228 233 237 245 257 269 278 285 289 294 299 299 300 302 299 296 295
255 232 218 219 229 235 254 271 146 142 108 189 245 244 263 248 245 243 244 238 234 239 235 234 234 233 237 235 233 230 226 224 226 230 236 246 258 267 276 282 289 296 300 303 304 303 301 299 297